{"data":{"norad_id":69374,"intl_designator":"2026-123X","name":"STARLINK-37632","alt_names":[],"object_type":"PAYLOAD","status":"ACTIVE","operator":null,"country":"US","launch_date":"2026-06-04","launch_site_code":"AFETR","launch_vehicle":null,"mission":null,"orbit_class":"UNKNOWN","rcs_meters":null,"size_class":null,"mass_kg":null,"dimensions":null,"purposes":["comms"],"wikipedia_slug":null,"has_3d_model":false,"image_url":null,"decayed_at":null,"tle_current":{"epoch":"2026-09-19T22:49:20.294976Z","epoch_age_seconds":76464,"freshness":"FRESH","line1":"1 69374U 26123X   26262.95092934  .00020656  00000+0  62090-3 0  9990","line2":"2 69374  53.1570 144.3973 0001282  82.8458 277.2691 15.34394945 16784","mean_motion":15.34394945,"eccentricity":0.0001282,"inclination_deg":53.157,"raan_deg":144.3973,"arg_perigee_deg":82.8458,"mean_anomaly_deg":277.2691,"bstar":0.0006209,"rev_number":1678,"period_min":93.84806725885,"perigee_km":461.8412671287,"apogee_km":463.59526241859,"semimajor_km":6840.8552647736,"source":"CELESTRAK","updated_at":"2026-09-20T09:00:44.192326Z"}}}